Back to catalog

METEOR 2-8 DEB

AlivePO
NORAD 36326·DEBRIS·🇷🇺 Russia

Launched Mar 25, 1982 from Plesetsk Cosmodrome

Loading…

Next Passes (next 24 hours)

TLE

AgingSource: Space-Track

Epoch: Sep 10, 2026, 01:53 UTC

1 36326U 82025L   26253.07903353  .00003138  00000-0  12376-2 0  9991
2 36326  82.5148 177.5172 0021984 358.6550   1.4572 14.28744382114611

Track METEOR 2-8 DEB in real time with AllMySat

Download on the App Store